Waskish, MN

7:41 PM CST on January 19, 2018 (GMT -0600)
Waskish Municipal

Weather History for KVWU - February, 2014

Change the Weather History Date:

Monday, February 10, 2014

  Actual Average (KBDE) Record (KBDE)
Temperature  
Mean Temperature -10 °F -  
Max Temperature 1 °F 19 °F 43 °F (1976)
Min Temperature -20 °F -4 °F -39 °F (1949)
Degree Days  
Heating Degree Days 74    
Moisture  
Dew Point -18 °F    
Average Humidity 74    
Maximum Humidity 84    
Minimum Humidity 61    
Precipitation  
Precipitation 0.00 in - - ()
Sea Level Pressure  
Sea Level Pressure 30.37 in    
Wind  
Wind Speed 6 mph (SW)    
Max Wind Speed 10 mph    
Max Gust Speed -    
Visibility 10 miles    
Events      
Averages and records for this station are not official NWS values.
T = Trace of Precipitation, MM = Missing Value Source: NWS Daily Summary

Daily Weather History Graph

Daily Weather History Graph

Search for Another Location

Airport or City:

Trip Planner

Search our weather history database for the weather conditions in past years. The results will help you decide how hot, cold, wet, or windy it might be!

Date:

Astronomy

Feb. 10, 2014 Rise Set
Actual Time 7:32 AM CST 5:32 PM CST
Civil Twilight 7:00 AM CST 6:04 PM CST
Nautical Twilight 6:23 AM CST 6:41 PM CST
Astronomical Twilight 5:47 AM CST 7:17 PM CST
Moon 1:54 PM CST (2/10) 4:34 AM CST (2/10)
Length of Visible Light 11h 04m
Length of Day
9h 59m
Waxing Gibbous, 85% of the Moon is Illuminated
Feb 10
Waxing Gibbous
Feb 14
Full
Feb 22
Last Quarter
Mar 1
New
Mar 8
First Quarter

Hourly Weather History & Observations

Time (CST) Temp. Windchill Dew Point Humidity Pressure Visibility Wind Dir Wind Speed Gust Speed Precip Events Conditions
12:16 AM -16.6 °F -34.4 °F -20.2 °F 84% 30.33 in 10.0 mi SW 8.1 mph - N/A   Clear
12:36 AM -16.6 °F -34.4 °F -20.2 °F 84% 30.33 in 10.0 mi SW 8.1 mph - N/A   Clear
12:56 AM -16.6 °F -34.4 °F -20.2 °F 84% 30.33 in 10.0 mi SW 8.1 mph - N/A   Clear
1:16 AM -16.6 °F -34.4 °F -20.2 °F 84% 30.33 in 10.0 mi WSW 8.1 mph - N/A   Clear
1:36 AM -16.6 °F -32.9 °F -20.2 °F 84% 30.32 in 10.0 mi WSW 6.9 mph - N/A   Clear
1:56 AM -16.6 °F -32.9 °F -20.2 °F 84% 30.32 in 10.0 mi WSW 6.9 mph - N/A   Clear
2:16 AM -18.4 °F -35.1 °F -22.0 °F 84% 30.32 in 10.0 mi WSW 6.9 mph - N/A   Clear
2:36 AM -18.4 °F -35.1 °F -22.0 °F 84% 30.32 in 10.0 mi WSW 6.9 mph - N/A   Clear
2:56 AM -16.6 °F -32.9 °F -22.0 °F 76% 30.32 in 10.0 mi WSW 6.9 mph - N/A   Clear
3:16 AM -16.6 °F -34.4 °F -22.0 °F 76% 30.33 in 10.0 mi SW 8.1 mph - N/A   Clear
3:36 AM -16.6 °F -34.4 °F -22.0 °F 76% 30.33 in 10.0 mi SW 8.1 mph - N/A   Clear
3:56 AM -16.6 °F -36.8 °F -22.0 °F 76% 30.34 in 10.0 mi SW 10.4 mph - N/A   Clear
4:16 AM -18.4 °F -39.1 °F -23.8 °F 76% 30.34 in 10.0 mi SW 10.4 mph - N/A   Clear
4:36 AM -18.4 °F -36.6 °F -23.8 °F 76% 30.34 in 10.0 mi SW 8.1 mph - N/A   Clear
4:56 AM -18.4 °F -37.9 °F -25.6 °F 70% 30.34 in 10.0 mi WSW 9.2 mph - N/A   Clear
5:16 AM -20.2 °F -35.5 °F -25.6 °F 76% 30.34 in 10.0 mi WSW 5.8 mph - N/A   Clear
5:36 AM -20.2 °F -33.5 °F -25.6 °F 76% 30.35 in 10.0 mi WSW 4.6 mph - N/A   Clear
5:56 AM -20.2 °F -38.8 °F -25.6 °F 76% 30.35 in 10.0 mi WSW 8.1 mph - N/A   Clear
6:16 AM -20.2 °F -35.5 °F -25.6 °F 76% 30.36 in 10.0 mi WSW 5.8 mph - N/A   Clear
6:36 AM -20.2 °F -38.8 °F -25.6 °F 76% 30.36 in 10.0 mi WSW 8.1 mph - N/A   Clear
6:56 AM -20.2 °F -35.5 °F -25.6 °F 76% 30.36 in 10.0 mi WSW 5.8 mph - N/A   Clear
7:16 AM -20.2 °F -35.5 °F -25.6 °F 76% 30.37 in 10.0 mi WSW 5.8 mph - N/A   Scattered Clouds
7:36 AM -20.2 °F -33.5 °F -25.6 °F 76% 30.37 in 10.0 mi WSW 4.6 mph - N/A   Mostly Cloudy
7:56 AM -18.4 °F -28.9 °F -25.6 °F 70% 30.38 in 10.0 mi WSW 3.5 mph - N/A   Overcast
8:16 AM -18.4 °F - -23.8 °F 76% 30.38 in 10.0 mi Calm Calm - N/A   Mostly Cloudy
8:36 AM -18.4 °F -28.9 °F -23.8 °F 76% 30.39 in 10.0 mi West 3.5 mph - N/A   Scattered Clouds
8:56 AM -16.6 °F - -22.0 °F 76% 30.39 in 10.0 mi Calm Calm - N/A   Clear
9:15 AM -16.6 °F -31.3 °F -20.2 °F 84% 30.39 in 10.0 mi WSW 5.8 mph - N/A   Clear
9:36 AM -14.8 °F -27.2 °F -20.2 °F 77% 30.40 in 10.0 mi SW 4.6 mph - N/A   Clear
9:56 AM -13.0 °F -27.0 °F -18.4 °F 77% 30.40 in 10.0 mi SW 5.8 mph - N/A   Clear
10:15 AM -13.0 °F -30.0 °F -18.4 °F 77% 30.40 in 10.0 mi SW 8.1 mph - N/A   Clear
10:36 AM -11.2 °F -27.8 °F -18.4 °F 70% 30.40 in 10.0 mi SW 8.1 mph - N/A   Clear
10:56 AM -11.2 °F -26.4 °F -16.6 °F 77% 30.41 in 10.0 mi WSW 6.9 mph - N/A   Clear
11:15 AM -9.4 °F -18.6 °F -14.8 °F 77% 30.41 in 10.0 mi WSW 3.5 mph - N/A   Clear
11:36 AM -7.6 °F -18.8 °F -14.8 °F 71% 30.40 in 10.0 mi WSW 4.6 mph - N/A   Clear
11:56 AM -5.8 °F -18.4 °F -13.0 °F 71% 30.40 in 10.0 mi SW 5.8 mph - N/A   Clear
12:15 PM -4.0 °F -16.3 °F -13.0 °F 65% 30.40 in 10.0 mi WSW 5.8 mph - N/A   Clear
12:36 PM -2.2 °F -14.2 °F -11.2 °F 66% 30.39 in 10.0 mi SW 5.8 mph - N/A   Clear
12:56 PM -2.2 °F -15.6 °F -11.2 °F 66% 30.39 in 10.0 mi SW 6.9 mph - N/A   Clear
1:15 PM -2.2 °F -14.2 °F -9.4 °F 71% 30.39 in 10.0 mi SW 5.8 mph - N/A   Clear
1:36 PM -0.4 °F -13.4 °F -9.4 °F 66% 30.38 in 10.0 mi SW 6.9 mph - N/A   Clear
1:56 PM -0.4 °F -13.4 °F -9.4 °F 66% 30.37 in 10.0 mi WSW 6.9 mph - N/A   Clear
2:15 PM -0.4 °F -12.0 °F -9.4 °F 66% 30.37 in 10.0 mi SW 5.8 mph - N/A   Clear
2:36 PM -0.4 °F -12.0 °F -9.4 °F 66% 30.38 in 10.0 mi SW 5.8 mph - N/A   Clear
2:56 PM 1.4 °F -8.3 °F -9.4 °F 61% 30.38 in 10.0 mi WSW 4.6 mph - N/A   Clear
3:15 PM 1.4 °F -8.3 °F -7.6 °F 66% 30.38 in 10.0 mi SW 4.6 mph - N/A   Clear
3:36 PM 1.4 °F -11.3 °F -9.4 °F 61% 30.38 in 10.0 mi SW 6.9 mph - N/A   Clear
3:56 PM 1.4 °F -9.9 °F -9.4 °F 61% 30.38 in 10.0 mi WSW 5.8 mph - N/A   Clear
4:16 PM -0.4 °F -12.0 °F -9.4 °F 66% 30.38 in 10.0 mi SW 5.8 mph - N/A   Clear
4:36 PM -0.4 °F -12.0 °F -9.4 °F 66% 30.38 in 10.0 mi SW 5.8 mph - N/A   Clear
4:56 PM -0.4 °F -13.4 °F -9.4 °F 66% 30.38 in 10.0 mi SW 6.9 mph - N/A   Clear
5:16 PM -2.2 °F -14.2 °F -11.2 °F 66% 30.38 in 10.0 mi SW 5.8 mph - N/A   Clear
5:36 PM -2.2 °F -12.5 °F -11.2 °F 66% 30.38 in 10.0 mi SSW 4.6 mph - N/A   Clear
5:56 PM -5.8 °F -16.7 °F -14.8 °F 65% 30.38 in 10.0 mi WSW 4.6 mph - N/A   Clear
6:16 PM -7.6 °F - -14.8 °F 71% 30.39 in 10.0 mi Calm Calm - N/A   Clear
6:36 PM -7.6 °F -23.4 °F -14.8 °F 71% 30.38 in 10.0 mi SW 8.1 mph - N/A   Clear
6:56 PM -7.6 °F -24.6 °F -14.8 °F 71% 30.38 in 10.0 mi SW 9.2 mph - N/A   Clear
7:16 PM -9.4 °F -25.6 °F -14.8 °F 77% 30.38 in 10.0 mi SW 8.1 mph - N/A   Clear
7:36 PM -9.4 °F -25.6 °F -14.8 °F 77% 30.37 in 10.0 mi WSW 8.1 mph - N/A   Clear
7:55 PM -9.4 °F -22.7 °F -16.6 °F 71% 30.37 in 10.0 mi WSW 5.8 mph - N/A   Clear
8:16 PM -9.4 °F -25.6 °F -16.6 °F 71% 30.37 in 10.0 mi SW 8.1 mph - N/A   Clear
8:36 PM -11.2 °F -26.4 °F -16.6 °F 77% 30.37 in 10.0 mi WSW 6.9 mph - N/A   Clear
8:56 PM -11.2 °F -20.6 °F -16.6 °F 77% 30.37 in 10.0 mi SW 3.5 mph - N/A   Clear
9:16 PM -11.2 °F -20.6 °F -16.6 °F 77% 30.37 in 10.0 mi SW 3.5 mph - N/A   Clear
9:36 PM -11.2 °F -23.0 °F -14.8 °F 84% 30.36 in 10.0 mi SW 4.6 mph - N/A   Clear
9:56 PM -11.2 °F - -18.4 °F 70% 30.35 in 10.0 mi Calm Calm - N/A   Clear
10:16 PM -16.6 °F - -22.0 °F 76% 30.35 in 10.0 mi Calm Calm - N/A   Clear
10:36 PM -18.4 °F - -23.8 °F 76% 30.34 in 10.0 mi Calm Calm - N/A   Clear
10:55 PM -18.4 °F - -23.8 °F 76% 30.34 in 10.0 mi Calm Calm - N/A   Clear
11:16 PM -18.4 °F - -23.8 °F 76% 30.34 in 10.0 mi Calm Calm - N/A   Clear
11:36 PM -18.4 °F - -23.8 °F 76% 30.34 in 10.0 mi Calm Calm - N/A   Clear
11:55 PM -18.4 °F - -23.8 °F 76% 30.34 in 10.0 mi Calm Calm - N/A   Clear